[[{"header":{"parameterUnit":"m.s-1","parameterCategory":2,"la1":30.2991,"la2":30.254,"lo1":-89.0895,"lo2":-89.0444,"dy":0.0017,"dx":0.0017,"nx":28,"ny":28,"refTime":"2024-03-17T09:00:00:Z","depth":"0","parameterNumber":2,"parameterNumberName":"U-component_of_CURRENTS"},"data":[0,0,0,0,0,0,0,0,0,0,0,0,0,0,0,0,0,0,0,0,0,0,0,0,0,0,0,0,0,0,0,0,0,0,0,0,0,0,0,0,0,0,0,0,0,0,0,0,0,0,0,0,0,0,0,0,0,0,0.2617,0.2618,0,0.2659,0.2659,0.2659,0.266,0.266,0.2659,0.2659,0.2657,0.2657,0.2657,0,0,0,0,0,0,0,0,0,0,0,0,0,0.2543,0.2544,0.2617,0.2618,0.2619,0.2659,0.2659,0.2659,0.266,0.266,0.2659,0.2659,0.2657,0.2657,0.2657,0,0,0,0,0,0,0,0,0,0,0,0,0,0.2576,0.2545,0.2617,0.2626,0.2628,0.2659,0.2659,0.2659,0.266,0.266,0.2659,0.2659,0.2657,0.2657,0.2657,0.2664,0,0,0.2657,0.2658,0,0,0,0,0,0,0,0,0.2574,0.2578,0.2624,0.2626,0.2628,0.2657,0.2632,0.266,0.266,0.2644,0.2659,0.2659,0.2655,0.2655,0.266,0.2664,0.2664,0.2657,0.2658,0.2658,0.2658,0,0,0,0,0,0,0,0.2572,0.2576,0.263,0.2625,0.2627,0.2631,0.2634,0.2637,0.2647,0.2645,0.2646,0.2657,0.2655,0.2659,0.2659,0.2664,0.2657,0.2658,0.2658,0.2658,0.2708,0.2709,0,0,0,0,0,0,0.2574,0.2574,0.2629,0.2632,0.2603,0.2632,0.2637,0.2645,0.2648,0.265,0.2657,0.2657,0.2659,0.2659,0.2659,0.2702,0.2658,0.2658,0.2658,0.2707,0.2708,0.2709,0,0,0,0,0,0,0.2572,0.2578,0.2627,0.2607,0.2614,0.2634,0.2643,0.2646,0.2653,0.2658,0.2658,0.2662,0.2659,0.2659,0.2671,0.27,0.2658,0.2658,0.2705,0.2707,0.2709,0.2765,0,0,0,0,0,0,0.257,0.2577,0.2582,0.2607,0.2615,0.265,0.2644,0.2647,0.2661,0.2661,0.2663,0.2662,0.2659,0.2671,0.2671,0.27,0.2658,0.2704,0.2706,0.2708,0.2761,0.2768,0.2774,0,0,0,0,0,0.2567,0.2576,0.2582,0.2589,0.2622,0.2651,0.2656,0.2667,0.2662,0.267,0.2673,0.2662,0.2686,0.2672,0.2672,0.2701,0.2703,0.2705,0.2708,0.2758,0.2767,0.2774,0,0,0,0,0,0,0.2543,0.2578,0.2585,0.2603,0.2629,0.2653,0.2665,0.267,0.2678,0.2677,0.2672,0.2673,0.2698,0.2689,0.2674,0.2723,0.2695,0.2697,0.2733,0.2741,0.2747,0.2758,0.2658,0,0,0,0,0,0.2542,0.256,0.2592,0.2607,0.2622,0.2643,0.2656,0.2665,0.2679,0.2682,0.2684,0.2691,0.271,0.2715,0.2724,0.2745,0.2774,0.2766,0.2772,0.2778,0.2788,0.2825,0.2836,0.2718,0.2718,0.2718,0,0,0.2538,0.2559,0.2569,0.2604,0.2624,0.2653,0.2649,0.2674,0.2699,0.268,0.2707,0.2711,0.272,0.275,0.2761,0.2746,0.284,0.2781,0.2786,0.2793,0.2829,0.2841,0.2851,0.272,0.272,0.272,0,0,0.2542,0.2558,0.2578,0.2601,0.2638,0.2658,0.2667,0.2695,0.2711,0.2735,0.2738,0.2758,0.2772,0.2794,0.2805,0.285,0.2872,0.2855,0.2897,0.2933,0.2943,0.2952,0.3065,0.3084,0.2857,0.2858,0.2858,0,0.2536,0.2564,0.2588,0.2615,0.2637,0.2663,0.269,0.2717,0.2743,0.2758,0.2749,0.2793,0.2798,0.285,0.2874,0.2866,0.2914,0.2866,0.2942,0.2951,0.2959,0.3072,0.3092,0.2861,0.286,0.286,0.286,0,0.256,0.2582,0.2597,0.2643,0.2669,0.2697,0.274,0.2763,0.278,0.2801,0.2846,0.2861,0.2882,0.2899,0.2904,0.2971,0.3001,0.2946,0.2923,0.2975,0.3091,0.3111,0.2865,0.2864,0.2863,0.2862,0,0,0.2549,0.2603,0.2609,0.2632,0.2685,0.2711,0.2759,0.2808,0.2851,0.2868,0.2924,0.2956,0.2956,0.297,0.2982,0.3028,0.315,0.3021,0.3022,0.3137,0.3301,0.3281,0.3301,0.3105,0.3107,0.3109,0.3381,0,0.2563,0.2607,0.2636,0.2684,0.2713,0.275,0.2799,0.2843,0.2889,0.295,0.2973,0.3034,0.2987,0.3025,0.305,0.3134,0.3194,0.3086,0.323,0.3236,0.3212,0.3318,0.3215,0.3442,0.34,0.3403,0.3406,0,0.2578,0.2608,0.265,0.271,0.2729,0.2765,0.2846,0.2896,0.2981,0.3017,0.3054,0.3089,0.3178,0.3124,0.3263,0.3199,0.3252,0.3308,0.3317,0.3286,0.325,0.3371,0.3479,0.3378,0.3436,0.3433,0.3431,0,0.2557,0.2618,0.265,0.267,0.2745,0.2774,0.2822,0.2906,0.2963,0.3078,0.314,0.3208,0.3286,0.3333,0.3425,0.3361,0.36,0.3513,0.3554,0.3558,0.349,0.3481,0.351,0.3601,0.3601,0.36,0.3599,0,0.2557,0.2586,0.2645,0.2663,0.2714,0.2774,0.2851,0.2907,0.3016,0.3101,0.3171,0.3268,0.3338,0.3464,0.3502,0.362,0.3651,0.3607,0.3621,0.3513,0.3503,0.3424,0.3387,0.361,0.3608,0.3606,0.3604,0,0.2533,0.2567,0.2607,0.2678,0.2702,0.2741,0.2847,0.2923,0.3025,0.3149,0.3198,0.336,0.3535,0.3625,0.3779,0.3744,0.3759,0.3869,0.3783,0.3778,0.3654,0.3625,0.3574,0.3468,0.3964,0.3965,0.3966,0,0.2529,0.2545,0.2601,0.2646,0.2682,0.2751,0.2816,0.2905,0.299,0.3201,0.327,0.3489,0.3608,0.3856,0.3897,0.401,0.3845,0.3948,0.3762,0.3674,0.3653,0.3475,0.3375,0.3746,0.3745,0.3745,0.3744,0,0.2545,0.2558,0.2608,0.2668,0.2729,0.2773,0.2866,0.2916,0.3053,0.3157,0.3338,0.3461,0.3709,0.3787,0.3938,0.3966,0.376,0.3931,0.3842,0.3502,0.3309,0.3204,0.3601,0.3737,0.3737,0.3738,0.3738,0.3739,0.2589,0.261,0.2681,0.2723,0.2783,0.2816,0.2824,0.2929,0.3016,0.315,0.3316,0.3458,0.3636,0.383,0.3834,0.378,0.3729,0.3662,0.3659,0.3504,0.3297,0.3714,0.3831,0.3832,0.3833,0.3834,0.3835,0,0.2666,0.2695,0.2749,0.2785,0.2809,0.2824,0.2882,0.2871,0.2926,0.3084,0.3198,0.339,0.3485,0.358,0.3632,0.3528,0.3318,0.3439,0.3158,0.3086,0.3485,0.3364,0.3378,0.3378,0.3378,0.3378,0.3378,0.3378,0.2737,0.2791,0.2774,0.2803,0.2813,0.2781,0.2776,0.2759,0.2826,0.2907,0.2995,0.3117,0.332,0.3473,0.34,0.3321,0.3057,0.296,0.2915,0.3201,0.3219,0.3235,0.3108,0.3068,0.3068,0.2357,0.2352,0.2348]},{"header":{"parameterUnit":"m.s-1","parameterCategory":2,"la1":30.2991,"la2":30.254,"lo1":-89.0895,"lo2":-89.0444,"dy":0.0017,"dx":0.0017,"nx":28,"ny":28,"refTime":"2024-03-17T09:00:00:Z","depth":"0","parameterNumber":3,"parameterNumberName":"V-component_of_CURRENTS"},"data":[0,0,0,0,0,0,0,0,0,0,0,0,0,0,0,0,0,0,0,0,0,0,0,0,0,0,0,0,0,0,0,0,0,0,0,0,0,0,0,0,0,0,0,0,0,0,0,0,0,0,0,0,0,0,0,0,0,0,-0.0202,-0.0202,0,-0.0259,-0.026,-0.026,-0.0308,-0.0308,-0.0309,-0.0309,-0.0398,-0.04,-0.0402,0,0,0,0,0,0,0,0,0,0,0,0,0,-0.0165,-0.0165,-0.0202,-0.0202,-0.0203,-0.0259,-0.026,-0.0261,-0.0308,-0.0308,-0.0309,-0.0309,-0.0397,-0.04,-0.0402,0,0,0,0,0,0,0,0,0,0,0,0,0,-0.0198,-0.0165,-0.0202,-0.0232,-0.0235,-0.0259,-0.026,-0.0261,-0.0308,-0.0308,-0.0309,-0.0309,-0.0397,-0.0399,-0.0402,-0.0409,0,0,-0.0412,-0.0413,0,0,0,0,0,0,0,0,-0.0196,-0.02,-0.0227,-0.023,-0.0234,-0.0276,-0.0279,-0.0312,-0.0308,-0.0282,-0.0309,-0.031,-0.0359,-0.0365,-0.0376,-0.0414,-0.0417,-0.0412,-0.0414,-0.0415,-0.0416,0,0,0,0,0,0,0,-0.0194,-0.0198,-0.0226,-0.0228,-0.0232,-0.0254,-0.0259,-0.0286,-0.0318,-0.0284,-0.0287,-0.0291,-0.0361,-0.0373,-0.0378,-0.0419,-0.0412,-0.0415,-0.0416,-0.0418,-0.0485,-0.0485,0,0,0,0,0,0,-0.0182,-0.0195,-0.0224,-0.0227,-0.0215,-0.0254,-0.026,-0.0263,-0.0317,-0.0325,-0.0291,-0.0293,-0.0367,-0.0375,-0.0382,-0.0401,-0.0415,-0.0418,-0.042,-0.0485,-0.0485,-0.0485,0,0,0,0,0,0,-0.0181,-0.0184,-0.0222,-0.0212,-0.0218,-0.0253,-0.0257,-0.0264,-0.0275,-0.0322,-0.0331,-0.0294,-0.0368,-0.0377,-0.0403,-0.0404,-0.0419,-0.0422,-0.0485,-0.0485,-0.0485,-0.0434,0,0,0,0,0,0,-0.018,-0.0183,-0.018,-0.0211,-0.0218,-0.0228,-0.0256,-0.0264,-0.0276,-0.028,-0.0328,-0.0337,-0.0369,-0.0398,-0.0406,-0.0409,-0.0424,-0.0485,-0.0485,-0.0485,-0.0436,-0.0432,-0.0429,0,0,0,0,0,-0.0178,-0.0166,-0.018,-0.0183,-0.0213,-0.0228,-0.0233,-0.0262,-0.0275,-0.0275,-0.0309,-0.0335,-0.0404,-0.04,-0.041,-0.0413,-0.0485,-0.0485,-0.0485,-0.0437,-0.0433,-0.043,0,0,0,0,0,0,-0.0141,-0.0171,-0.0186,-0.0182,-0.0202,-0.0235,-0.0235,-0.0255,-0.0282,-0.0285,-0.0332,-0.0343,-0.0368,-0.0395,-0.039,-0.0433,-0.045,-0.0452,-0.0411,-0.0407,-0.0404,-0.0383,-0.0427,0,0,0,0,0,-0.0132,-0.0136,-0.0165,-0.0162,-0.0168,-0.0201,-0.021,-0.0229,-0.0256,-0.0269,-0.0303,-0.0341,-0.0375,-0.0393,-0.0425,-0.0444,-0.0444,-0.0454,-0.045,-0.0447,-0.0437,-0.0446,-0.0442,-0.0485,-0.0485,-0.0485,0,0,-0.0118,-0.0133,-0.0136,-0.0155,-0.0172,-0.0175,-0.0208,-0.0215,-0.0223,-0.0274,-0.0292,-0.0329,-0.0377,-0.0402,-0.0416,-0.0425,-0.043,-0.0447,-0.0444,-0.0436,-0.0445,-0.0441,-0.0437,-0.0485,-0.0485,-0.0485,0,0,-0.0087,-0.0102,-0.0095,-0.0108,-0.0128,-0.015,-0.0149,-0.018,-0.0198,-0.0219,-0.0261,-0.0296,-0.0341,-0.0381,-0.0406,-0.0403,-0.0412,-0.0414,-0.0383,-0.0391,-0.0387,-0.0384,-0.035,-0.0344,-0.0414,-0.0413,-0.0413,0,-0.0067,-0.0065,-0.0094,-0.0089,-0.0093,-0.0134,-0.0125,-0.0149,-0.0187,-0.0194,-0.0216,-0.0283,-0.0333,-0.0365,-0.0373,-0.0396,-0.0382,-0.0393,-0.0385,-0.0382,-0.0379,-0.0346,-0.034,-0.0411,-0.0411,-0.0412,-0.0412,0,-0.0036,-0.0033,-0.0025,-0.0038,-0.0046,-0.0043,-0.0078,-0.0088,-0.0115,-0.0141,-0.0172,-0.0237,-0.0274,-0.0304,-0.0342,-0.0354,-0.0341,-0.0377,-0.039,-0.0372,-0.0337,-0.0332,-0.0407,-0.0408,-0.0409,-0.041,0,0,0.0007,-0.0003,-0.0,0.0006,-0.0018,-0.0018,-0.0027,-0.0043,-0.0035,-0.0088,-0.0077,-0.0169,-0.0197,-0.0228,-0.0282,-0.0304,-0.0283,-0.0329,-0.033,-0.0283,-0.0258,-0.0231,-0.0222,-0.0312,-0.0312,-0.0312,-0.0229,0,0.004,0.0064,0.0046,0.0068,0.0079,0.0047,0.0046,0.0026,0.0003,0.0004,-0.0067,-0.0077,-0.0171,-0.0174,-0.022,-0.0262,-0.0271,-0.0299,-0.0291,-0.029,-0.0261,-0.0217,-0.0224,-0.015,-0.0224,-0.0224,-0.0223,0,0.0078,0.0089,0.0122,0.0128,0.0131,0.0141,0.0148,0.0143,0.0125,0.0114,0.0081,0.004,-0.0004,-0.0077,-0.0146,-0.0153,-0.0199,-0.0237,-0.0236,-0.0226,-0.0255,-0.0188,-0.0138,-0.0342,-0.0215,-0.0216,-0.0216,0,0.0128,0.0141,0.0172,0.0175,0.0177,0.0195,0.0197,0.0185,0.022,0.0206,0.026,0.0159,0.0189,0.007,-0.0016,-0.0074,-0.0055,-0.0149,-0.0162,-0.0159,-0.0171,-0.017,-0.0311,-0.0181,-0.0182,-0.0182,-0.0182,0,0.0173,0.0199,0.0205,0.0227,0.0284,0.0256,0.0326,0.0312,0.0346,0.0443,0.0336,0.0427,0.0234,0.0219,0.0064,0.0002,0.001,-0.0131,-0.0137,-0.015,-0.0149,-0.0333,-0.0447,-0.0179,-0.0179,-0.018,-0.0181,0,0.0237,0.023,0.0279,0.0298,0.0317,0.0364,0.0445,0.0506,0.0517,0.0656,0.068,0.0672,0.0663,0.0483,0.0356,0.0176,-0.0039,0.0039,0.0061,0.0055,-0.0211,-0.0319,-0.0408,-0.0505,0.0005,0.0006,0.0007,0,0.028,0.0311,0.0359,0.0424,0.0449,0.0522,0.0595,0.0599,0.0695,0.0842,0.0944,0.0984,0.106,0.0875,0.0558,0.0316,0.0097,0.0136,-0.0015,-0.0202,-0.0328,-0.0407,-0.049,0.0004,0.0004,0.0005,0.0006,0,0.0394,0.0407,0.0461,0.0581,0.0668,0.0761,0.0871,0.0969,0.1037,0.1175,0.1388,0.1465,0.131,0.1085,0.0735,0.0517,-0.0025,0.0143,-0.0074,-0.035,-0.0421,-0.0523,-0.0048,0.0012,0.0011,0.0011,0.0011,0.001,0.0518,0.058,0.0668,0.0779,0.088,0.1024,0.112,0.1268,0.1455,0.1679,0.1725,0.1874,0.1487,0.1012,0.0709,0.008,0.0067,-0.0153,-0.0263,-0.0319,-0.0448,0.007,0.0126,0.0126,0.0126,0.0126,0.0126,0,0.0702,0.0766,0.0879,0.1016,0.1145,0.1144,0.133,0.1441,0.1691,0.1916,0.209,0.1979,0.1507,0.0959,0.014,-0.0275,-0.0473,-0.0513,-0.0677,-0.0743,-0.0299,-0.0341,-0.0355,-0.0355,-0.0355,-0.0355,-0.0355,-0.0354,0.0829,0.0966,0.0995,0.1236,0.1322,0.1476,0.1568,0.1744,0.1913,0.2183,0.227,0.2303,0.1836,0.0469,-0.0501,-0.0733,-0.1044,-0.1064,-0.1222,-0.099,-0.0967,-0.0946,-0.1015,-0.117,-0.1171,-0.1642,-0.1647,-0.1651]}],[{"header":{"parameterUnit":"m.s-1","parameterCategory":2,"la1":30.2991,"la2":30.254,"lo1":-89.0895,"lo2":-89.0444,"dy":0.0017,"dx":0.0017,"nx":28,"ny":28,"refTime":"2024-03-17T09:00:00:Z","depth":"2","parameterNumber":2,"parameterNumberName":"U-component_of_CURRENTS"},"data":[0,0,0,0,0,0,0,0,0,0,0,0,0,0,0,0,0,0,0,0,0,0,0,0,0,0,0,0,0,0,0,0,0,0,0,0,0,0,0,0,0,0,0,0,0,0,0,0,0,0,0,0,0,0,0,0,0,0,0.1967,0.1968,0,0.2001,0.2001,0.2002,0.2022,0.2022,0.2022,0.2022,0.2044,0.2045,0.2045,0,0,0,0,0,0,0,0,0,0,0,0,0,0.191,0.1911,0.1967,0.1968,0.1968,0.2001,0.2001,0.2002,0.2022,0.2022,0.2022,0.2022,0.2044,0.2045,0.2045,0,0,0,0,0,0,0,0,0,0,0,0,0,0.1937,0.1911,0.1967,0.1983,0.1985,0.2001,0.2001,0.2002,0.2022,0.2022,0.2022,0.2022,0.2044,0.2045,0.2045,0.2045,0,0,0.2047,0.2048,0,0,0,0,0,0,0,0,0.1936,0.1939,0.198,0.1982,0.1984,0.2008,0.1989,0.2016,0.2021,0.2007,0.2022,0.2022,0.2032,0.2033,0.2038,0.2046,0.2047,0.2048,0.2048,0.2048,0.2048,0,0,0,0,0,0,0,0.1934,0.1938,0.198,0.198,0.1983,0.1984,0.1989,0.1994,0.2016,0.2008,0.201,0.2015,0.2032,0.2037,0.2039,0.2047,0.2048,0.2048,0.2049,0.2049,0.2117,0.2119,0,0,0,0,0,0,0.1932,0.1936,0.1979,0.1981,0.1961,0.1985,0.199,0.1999,0.2017,0.202,0.2014,0.2015,0.2036,0.2038,0.204,0.2091,0.2048,0.2049,0.2049,0.2116,0.2117,0.2119,0,0,0,0,0,0,0.1931,0.1935,0.1977,0.196,0.1965,0.1986,0.1996,0.2,0.2015,0.2022,0.2025,0.2027,0.2036,0.2039,0.206,0.209,0.2049,0.205,0.2114,0.2116,0.2118,0.216,0,0,0,0,0,0,0.1929,0.1935,0.1943,0.196,0.1966,0.2,0.1996,0.2,0.2018,0.2019,0.2034,0.2035,0.2037,0.2059,0.2061,0.209,0.205,0.2112,0.2115,0.2118,0.2157,0.2164,0.2169,0,0,0,0,0,0.1927,0.1933,0.1944,0.1949,0.1976,0.2001,0.2005,0.2019,0.2018,0.2032,0.2042,0.2036,0.2078,0.2061,0.2062,0.2092,0.2111,0.2114,0.2117,0.2155,0.2162,0.2169,0,0,0,0,0,0,0.1907,0.1937,0.1948,0.1962,0.1988,0.2005,0.2017,0.2024,0.2042,0.2046,0.2046,0.2049,0.2085,0.208,0.2061,0.2122,0.2096,0.21,0.2124,0.2132,0.2138,0.2148,0.2051,0,0,0,0,0,0.1908,0.1926,0.1953,0.1967,0.1981,0.2001,0.2012,0.2027,0.2042,0.2051,0.206,0.2075,0.2098,0.2107,0.2125,0.2147,0.2167,0.2171,0.2177,0.2182,0.2193,0.2247,0.2259,0.2129,0.2129,0.2129,0,0,0.1906,0.1922,0.1934,0.1965,0.1984,0.2008,0.2008,0.2035,0.2058,0.205,0.208,0.2097,0.211,0.2146,0.2161,0.2145,0.2231,0.2186,0.219,0.2198,0.2252,0.2265,0.2276,0.2132,0.2131,0.2131,0,0,0.1907,0.1926,0.1944,0.1971,0.2007,0.2018,0.2028,0.2057,0.2077,0.2107,0.2116,0.2148,0.217,0.2193,0.2205,0.2253,0.2265,0.2262,0.2295,0.2348,0.236,0.237,0.2418,0.2432,0.226,0.226,0.226,0,0.1901,0.1931,0.1952,0.198,0.2006,0.2023,0.2053,0.2073,0.2106,0.2135,0.2125,0.2192,0.2196,0.2252,0.2271,0.2267,0.23,0.2264,0.2357,0.2367,0.2376,0.2424,0.2439,0.2262,0.2262,0.2262,0.2262,0,0.1925,0.1952,0.1965,0.2007,0.2034,0.2064,0.21,0.2131,0.215,0.2176,0.2241,0.2254,0.2299,0.2305,0.23,0.2376,0.2379,0.2361,0.2337,0.2392,0.2438,0.2453,0.2266,0.2265,0.2264,0.2264,0,0,0.1898,0.1968,0.1974,0.2003,0.2057,0.2078,0.2129,0.2184,0.2223,0.226,0.232,0.2359,0.238,0.2395,0.24,0.2436,0.2525,0.243,0.2431,0.2476,0.2653,0.2593,0.2603,0.2529,0.2532,0.2534,0.2661,0,0.191,0.1963,0.1999,0.2048,0.2078,0.2128,0.217,0.2226,0.227,0.2329,0.2371,0.242,0.241,0.2435,0.2478,0.2521,0.2566,0.2493,0.2595,0.2598,0.2536,0.2618,0.2417,0.2507,0.2675,0.2678,0.268,0,0.1922,0.1956,0.2011,0.2078,0.2098,0.213,0.2214,0.2259,0.2352,0.2395,0.2467,0.2493,0.2573,0.2536,0.2657,0.2617,0.2646,0.2664,0.2669,0.2608,0.2565,0.2479,0.2528,0.2704,0.2702,0.27,0.2699,0,0.1891,0.1961,0.2002,0.203,0.2108,0.215,0.2195,0.2285,0.2338,0.2442,0.2498,0.2585,0.265,0.2701,0.275,0.2719,0.2869,0.2827,0.2801,0.2797,0.2642,0.2619,0.2908,0.2908,0.2908,0.2907,0.2907,0,0.189,0.1921,0.1992,0.2016,0.2068,0.2137,0.2207,0.2273,0.2376,0.2449,0.2532,0.26,0.2697,0.2783,0.2801,0.2864,0.2922,0.2833,0.2835,0.2651,0.2628,0.2802,0.2788,0.2912,0.2911,0.291,0.2909,0,0.1859,0.1905,0.1947,0.2028,0.2054,0.2096,0.2204,0.226,0.2368,0.2471,0.2509,0.2657,0.2776,0.2852,0.2954,0.2939,0.2981,0.2978,0.2756,0.2728,0.286,0.2847,0.2975,0.2974,0.2974,0.2973,0.2972,0,0.1853,0.1868,0.194,0.1964,0.2004,0.2075,0.2128,0.2242,0.2302,0.2489,0.2532,0.2694,0.2778,0.2925,0.2933,0.298,0.3003,0.2796,0.2684,0.2884,0.2872,0.286,0.2848,0.2505,0.25,0.2497,0.2494,0,0.1835,0.1856,0.189,0.1936,0.1986,0.2038,0.212,0.2155,0.2299,0.2388,0.2506,0.2588,0.2759,0.2728,0.2808,0.2789,0.2769,0.2724,0.3019,0.2508,0.2447,0.2433,0.2436,0.2462,0.2466,0.2468,0.247,0.2471,0.181,0.182,0.1862,0.1898,0.1949,0.1983,0.1975,0.2074,0.2143,0.2241,0.2378,0.2446,0.2531,0.255,0.2497,0.247,0.2644,0.2519,0.2527,0.2539,0.2451,0.2391,0.2381,0.2383,0.2385,0.2387,0.2389,0,0.1761,0.1784,0.1825,0.185,0.1862,0.1923,0.1949,0.1914,0.1938,0.2106,0.2176,0.2059,0.2094,0.2174,0.2099,0.2112,0.2061,0.2016,0.193,0.1966,0.1997,0.1876,0.1655,0.1652,0.165,0.1647,0,0,0.1737,0.173,0.1749,0.1748,0.1769,0.1718,0.1691,0.1673,0.1726,0.1751,0.1804,0.2002,0.2129,0.1856,0.1841,0.1737,0.1825,0.1671,0.2272,0.2209,0.2235,0.2315,0.2174,0,0,0,0,0]},{"header":{"parameterUnit":"m.s-1","parameterCategory":2,"la1":30.2991,"la2":30.254,"lo1":-89.0895,"lo2":-89.0444,"dy":0.0017,"dx":0.0017,"nx":28,"ny":28,"refTime":"2024-03-17T09:00:00:Z","depth":"2","parameterNumber":3,"parameterNumberName":"V-component_of_CURRENTS"},"data":[0,0,0,0,0,0,0,0,0,0,0,0,0,0,0,0,0,0,0,0,0,0,0,0,0,0,0,0,0,0,0,0,0,0,0,0,0,0,0,0,0,0,0,0,0,0,0,0,0,0,0,0,0,0,0,0,0,0,-0.0038,-0.0038,0,-0.0091,-0.0092,-0.0093,-0.0138,-0.0138,-0.0139,-0.0139,-0.0214,-0.0215,-0.0217,0,0,0,0,0,0,0,0,0,0,0,0,0,-0.0005,-0.0005,-0.0038,-0.0038,-0.0039,-0.0091,-0.0092,-0.0093,-0.0138,-0.0139,-0.0139,-0.0139,-0.0213,-0.0215,-0.0217,0,0,0,0,0,0,0,0,0,0,0,0,0,-0.0037,-0.0006,-0.0038,-0.0066,-0.0069,-0.0091,-0.0092,-0.0093,-0.0138,-0.0139,-0.0139,-0.0139,-0.0212,-0.0215,-0.0217,-0.0223,0,0,-0.0225,-0.0226,0,0,0,0,0,0,0,0,-0.0035,-0.0038,-0.0062,-0.0064,-0.0068,-0.0107,-0.0108,-0.0137,-0.0138,-0.0114,-0.0139,-0.014,-0.0178,-0.0184,-0.0195,-0.0226,-0.0229,-0.0225,-0.0227,-0.0228,-0.0228,0,0,0,0,0,0,0,-0.0032,-0.0036,-0.0061,-0.0062,-0.0066,-0.0087,-0.0092,-0.0114,-0.0144,-0.0116,-0.0119,-0.0122,-0.018,-0.0192,-0.0197,-0.0231,-0.0225,-0.0227,-0.0229,-0.023,-0.0282,-0.0282,0,0,0,0,0,0,-0.002,-0.0034,-0.0059,-0.0062,-0.005,-0.0087,-0.0092,-0.0095,-0.0144,-0.0151,-0.0121,-0.0124,-0.0188,-0.0194,-0.02,-0.0205,-0.0228,-0.023,-0.0231,-0.0282,-0.0282,-0.0282,0,0,0,0,0,0,-0.0019,-0.0022,-0.0057,-0.0048,-0.0054,-0.0086,-0.009,-0.0096,-0.0108,-0.0147,-0.0155,-0.0126,-0.0188,-0.0196,-0.0217,-0.0209,-0.0231,-0.0233,-0.0282,-0.0282,-0.0282,-0.0219,0,0,0,0,0,0,-0.0018,-0.0021,-0.0019,-0.0047,-0.0054,-0.0063,-0.0089,-0.0097,-0.0108,-0.0112,-0.0154,-0.0162,-0.0189,-0.0213,-0.022,-0.0213,-0.0235,-0.0282,-0.0282,-0.0282,-0.0221,-0.0217,-0.0213,0,0,0,0,0,-0.0017,-0.0007,-0.0019,-0.0022,-0.005,-0.0063,-0.0068,-0.0094,-0.0108,-0.0108,-0.0138,-0.016,-0.0217,-0.0215,-0.0223,-0.0216,-0.0282,-0.0282,-0.0282,-0.0223,-0.0218,-0.0213,0,0,0,0,0,0,0.0009,-0.0011,-0.0025,-0.0022,-0.0039,-0.0069,-0.007,-0.0089,-0.0113,-0.0118,-0.0157,-0.0167,-0.0184,-0.0209,-0.0206,-0.0232,-0.0254,-0.0255,-0.0206,-0.0202,-0.0197,-0.0182,-0.0237,0,0,0,0,0,0.0017,0.0017,-0.0007,-0.0005,-0.001,-0.004,-0.0049,-0.0066,-0.009,-0.0102,-0.0131,-0.0163,-0.0189,-0.0201,-0.0229,-0.0239,-0.0262,-0.0241,-0.0237,-0.0233,-0.0227,-0.0257,-0.0254,-0.0281,-0.0281,-0.0281,0,0,0.0026,0.0016,0.0015,0.0,-0.0016,-0.0013,-0.0047,-0.0054,-0.0054,-0.0105,-0.0115,-0.015,-0.0189,-0.0204,-0.0213,-0.0222,-0.0237,-0.0233,-0.0229,-0.0225,-0.0256,-0.0254,-0.0251,-0.0281,-0.0281,-0.0281,0,0,0.0053,0.0038,0.0049,0.0039,0.0024,0.0008,0.001,-0.0018,-0.0033,-0.0048,-0.0085,-0.0112,-0.015,-0.0175,-0.0193,-0.0182,-0.0216,-0.0193,-0.0155,-0.0184,-0.0182,-0.0181,-0.0199,-0.02,-0.0187,-0.0187,-0.0187,0,0.0066,0.0075,0.0051,0.0061,0.0059,0.0023,0.0037,0.002,-0.0012,-0.0019,-0.0042,-0.01,-0.0136,-0.0151,-0.0151,-0.0171,-0.0191,-0.0169,-0.0178,-0.0177,-0.0176,-0.0196,-0.0197,-0.0184,-0.0185,-0.0185,-0.0185,0,0.0101,0.0106,0.0114,0.0114,0.0111,0.0115,0.0093,0.0086,0.0062,0.004,0.0015,-0.0039,-0.0071,-0.0089,-0.0119,-0.013,-0.0145,-0.017,-0.0186,-0.0169,-0.0192,-0.0194,-0.018,-0.0181,-0.0182,-0.0183,0,0,0.0133,0.0138,0.0139,0.0152,0.0138,0.0144,0.0146,0.014,0.0152,0.0103,0.0106,0.0046,0.0012,-0.0011,-0.0054,-0.0083,-0.01,-0.0119,-0.0122,-0.0129,-0.0155,-0.0177,-0.0183,-0.0125,-0.0126,-0.0126,-0.0169,0,0.0166,0.0201,0.0189,0.0222,0.024,0.0213,0.0225,0.0214,0.0194,0.0188,0.0125,0.0109,0.0044,0.0032,-0.001,-0.0075,-0.0105,-0.0085,-0.0178,-0.018,-0.0196,-0.0186,-0.0157,-0.0194,-0.0172,-0.0172,-0.0173,0,0.0204,0.0223,0.0262,0.0286,0.0291,0.0307,0.0323,0.0327,0.0307,0.029,0.0252,0.0204,0.0153,0.0096,-0.001,0.0006,-0.0069,-0.0125,-0.0129,-0.0172,-0.0208,-0.021,-0.02,-0.0178,-0.0177,-0.0177,-0.0177,0,0.0246,0.0275,0.031,0.0315,0.0336,0.0353,0.0363,0.036,0.0377,0.0357,0.0368,0.0287,0.0261,0.0152,0.0024,0.0009,-0.0091,-0.0127,-0.0216,-0.0218,-0.0223,-0.0225,-0.02,-0.02,-0.02,-0.02,-0.0199,0,0.0287,0.0316,0.0337,0.0358,0.0411,0.0406,0.0457,0.0456,0.0466,0.0505,0.0425,0.0435,0.0273,0.0193,0.006,-0.0081,-0.0066,-0.0205,-0.0231,-0.02,-0.02,-0.0213,-0.0214,-0.0201,-0.0201,-0.0201,-0.02,0,0.0323,0.0335,0.0383,0.0417,0.0434,0.0473,0.0522,0.056,0.0563,0.0613,0.0613,0.0547,0.0444,0.028,0.0112,-0.0018,-0.0159,-0.0213,-0.0161,-0.0182,-0.0275,-0.0272,-0.0315,-0.0317,-0.0318,-0.0318,-0.0319,0,0.0344,0.0371,0.0429,0.0466,0.0484,0.0539,0.0583,0.0605,0.0652,0.0688,0.072,0.0643,0.0596,0.0339,0.0101,-0.0125,-0.0157,-0.0246,-0.028,-0.0266,-0.0287,-0.0283,-0.0279,-0.0258,-0.0258,-0.0258,-0.0258,0,0.0376,0.0395,0.0432,0.0511,0.0568,0.0638,0.0704,0.0759,0.0801,0.085,0.0891,0.0858,0.0624,0.0394,0.0083,-0.0069,-0.0212,-0.0257,-0.025,-0.0236,-0.0216,-0.0236,-0.0233,-0.0259,-0.0259,-0.0259,-0.0259,-0.0259,0.0392,0.0422,0.0472,0.0551,0.0623,0.072,0.0796,0.0872,0.0961,0.1043,0.1008,0.0976,0.0717,0.0319,0.0048,-0.0227,-0.0224,-0.0318,-0.0315,-0.0313,-0.0302,-0.0285,-0.0338,-0.0339,-0.0339,-0.0339,-0.0339,0,0.0396,0.0432,0.0506,0.0601,0.0694,0.0735,0.0866,0.0943,0.1061,0.1128,0.1155,0.0926,0.0664,0.0374,-0.0038,-0.0295,-0.0307,-0.0364,-0.0323,-0.032,-0.0318,-0.0306,-0.0344,-0.0345,-0.0346,-0.0346,0,0,0.0393,0.0449,0.0492,0.0635,0.0718,0.0856,0.0943,0.1057,0.1136,0.1197,0.1194,0.1125,0.0768,0.0471,0.0125,-0.0107,-0.0152,-0.015,-0.0118,-0.0025,-0.002,-0.0264,-0.0238,0,0,0,0,0]}],[{"header":{"parameterUnit":"m.s-1","parameterCategory":2,"la1":30.2991,"la2":30.254,"lo1":-89.0895,"lo2":-89.0444,"dy":0.0017,"dx":0.0017,"nx":28,"ny":28,"refTime":"2024-03-17T09:00:00:Z","depth":"4","parameterNumber":2,"parameterNumberName":"U-component_of_CURRENTS"},"data":[0,0,0,0,0,0,0,0,0,0,0,0,0,0,0,0,0,0,0,0,0,0,0,0,0,0,0,0,0,0,0,0,0,0,0,0,0,0,0,0,0,0,0,0,0,0,0,0,0,0,0,0,0,0,0,0,0,0,0.1139,0.1139,0,0.12,0.1201,0.1201,0.1248,0.1249,0.1249,0.125,0.1324,0.1325,0.1327,0,0,0,0,0,0,0,0,0,0,0,0,0,0.1058,0.1059,0.1138,0.1139,0.114,0.12,0.1201,0.1201,0.1248,0.1249,0.125,0.125,0.1323,0.1325,0.1327,0,0,0,0,0,0,0,0,0,0,0,0,0,0.1103,0.106,0.1138,0.1171,0.1175,0.12,0.1201,0.1202,0.1248,0.1249,0.125,0.125,0.1323,0.1325,0.1327,0.1326,0,0,0.1334,0.1335,0,0,0,0,0,0,0,0,0.11,0.1106,0.1166,0.1169,0.1173,0.1218,0.12,0.1244,0.1248,0.122,0.125,0.1251,0.129,0.1295,0.1303,0.1329,0.1333,0.1334,0.1336,0.1337,0.1337,0,0,0,0,0,0,0,0.1097,0.1103,0.1162,0.1166,0.1171,0.1182,0.1189,0.1208,0.1249,0.1222,0.1226,0.1234,0.1292,0.1301,0.1305,0.1334,0.1334,0.1336,0.1338,0.1339,0.1437,0.1438,0,0,0,0,0,0,0.1091,0.11,0.116,0.1164,0.1139,0.1183,0.1191,0.1202,0.1249,0.1257,0.1233,0.1236,0.1297,0.1303,0.1308,0.1379,0.1337,0.1339,0.134,0.1435,0.1437,0.1438,0,0,0,0,0,0,0.1089,0.1095,0.1158,0.1134,0.1143,0.1183,0.1196,0.1203,0.1241,0.1257,0.1265,0.1267,0.1298,0.1305,0.1352,0.138,0.134,0.1342,0.1434,0.1436,0.1437,0.1476,0,0,0,0,0,0,0.1086,0.1094,0.1112,0.1134,0.1144,0.1189,0.1195,0.1204,0.1243,0.1248,0.1288,0.1294,0.1299,0.1348,0.1354,0.1382,0.1344,0.1432,0.1435,0.1437,0.1473,0.1479,0.1484,0,0,0,0,0,0.1083,0.1098,0.1113,0.1121,0.1163,0.119,0.1196,0.1226,0.1244,0.1264,0.1295,0.1295,0.1367,0.1351,0.1358,0.1387,0.1431,0.1434,0.1437,0.1471,0.1478,0.1484,0,0,0,0,0,0,0.1074,0.1105,0.1122,0.1147,0.1175,0.1198,0.1221,0.1242,0.1282,0.1295,0.1312,0.132,0.1368,0.1374,0.1356,0.1422,0.1399,0.1403,0.1422,0.1429,0.1435,0.1429,0.1346,0,0,0,0,0,0.108,0.1101,0.1131,0.1154,0.117,0.1202,0.1222,0.1243,0.1274,0.1294,0.1324,0.1354,0.1379,0.1403,0.1422,0.1462,0.1474,0.1485,0.149,0.1494,0.1494,0.1542,0.1552,0.1447,0.1447,0.1447,0,0,0.1081,0.1103,0.1116,0.1154,0.1179,0.1202,0.1217,0.1253,0.1281,0.1295,0.1351,0.1375,0.1393,0.1435,0.1458,0.1449,0.1532,0.1498,0.1502,0.1499,0.1546,0.1556,0.1565,0.1449,0.1449,0.1449,0,0,0.1085,0.1118,0.1135,0.1162,0.1204,0.122,0.1237,0.1279,0.1311,0.136,0.1377,0.1419,0.1464,0.1483,0.1495,0.1543,0.1556,0.1557,0.1586,0.1633,0.1642,0.165,0.1684,0.1695,0.1564,0.1564,0.1564,0,0.1089,0.1116,0.1145,0.117,0.1195,0.1231,0.1255,0.1287,0.1342,0.1374,0.1384,0.1465,0.1482,0.153,0.1548,0.1555,0.1584,0.1559,0.164,0.1648,0.1655,0.1689,0.17,0.1566,0.1566,0.1566,0.1566,0,0.1098,0.1132,0.1147,0.1187,0.1217,0.1246,0.1287,0.1333,0.1376,0.1407,0.1479,0.1509,0.1561,0.1572,0.1576,0.164,0.1645,0.1638,0.1622,0.1668,0.1701,0.1712,0.1569,0.1569,0.1568,0.1568,0,0,0.1072,0.114,0.1148,0.1175,0.1233,0.1253,0.1309,0.1364,0.141,0.1468,0.1531,0.1577,0.1611,0.1627,0.1647,0.1684,0.176,0.1691,0.1692,0.1722,0.187,0.1757,0.1758,0.1779,0.1781,0.1783,0.1874,0,0.1074,0.1121,0.1154,0.12,0.1229,0.1284,0.1329,0.1387,0.1446,0.1515,0.1565,0.1626,0.1627,0.1668,0.1708,0.1752,0.1791,0.1736,0.1823,0.1825,0.1716,0.1767,0.1789,0.1882,0.1884,0.1886,0.1888,0,0.1066,0.1105,0.1153,0.1221,0.1238,0.1272,0.1359,0.1407,0.1504,0.1556,0.1633,0.1675,0.1754,0.174,0.1846,0.1819,0.185,0.187,0.1875,0.1759,0.1731,0.1825,0.1907,0.1906,0.1904,0.1903,0.1902,0,0.1031,0.1099,0.114,0.1164,0.1244,0.1286,0.1336,0.1429,0.1486,0.1597,0.1656,0.1743,0.1812,0.1865,0.1921,0.1902,0.2021,0.1998,0.1919,0.1912,0.197,0.196,0.2061,0.2061,0.2061,0.2061,0.206,0,0.1011,0.1046,0.1132,0.1156,0.121,0.1277,0.1348,0.1417,0.1525,0.1594,0.1684,0.175,0.1851,0.1928,0.1954,0.1976,0.2058,0.193,0.193,0.1985,0.1976,0.1978,0.1967,0.2064,0.2063,0.2062,0.2062,0,0.0963,0.1022,0.1071,0.1163,0.1197,0.1239,0.1353,0.1403,0.1519,0.1619,0.1663,0.1795,0.1894,0.1968,0.2062,0.2016,0.2043,0.2025,0.2088,0.209,0.1894,0.1884,0.1945,0.1941,0.1939,0.1936,0.1934,0,0.094,0.0961,0.1065,0.1095,0.1141,0.1218,0.1269,0.1392,0.145,0.1629,0.1667,0.1809,0.1883,0.1928,0.2006,0.2049,0.2023,0.2016,0.1934,0.1889,0.1884,0.1878,0.1872,0.193,0.1929,0.1929,0.1928,0,0.0882,0.0928,0.0972,0.104,0.1097,0.1151,0.124,0.1276,0.1422,0.1547,0.1638,0.1698,0.1804,0.1867,0.1916,0.1937,0.2006,0.1986,0.1991,0.1914,0.1872,0.1868,0.1866,0.1918,0.192,0.1921,0.1921,0,0.0834,0.0848,0.0909,0.0962,0.1024,0.1056,0.1119,0.1195,0.1273,0.1477,0.1507,0.1659,0.179,0.1811,0.1858,0.1871,0.1839,0.1764,0.1779,0.1791,0.1696,0.1617,0.1592,0,0,0,0,0,0.0772,0.078,0.0822,0.0867,0.0926,0.0966,0.1079,0.1148,0.1302,0.1332,0.1418,0.151,0.1593,0.1668,0.1653,0.1782,0.1835,0.1755,0.1752,0.1866,0.1877,0.1779,0,0,0,0,0,0,0.0727,0.0756,0.0788,0.0774,0.0789,0.0841,0.0909,0.1019,0.1045,0.1215,0.1272,0.1406,0.1509,0.1585,0.1619,0.1642,0.1607,0.1855,0.1851,0.186,0.187,0.1878,0.1781,0,0,0,0,0]},{"header":{"parameterUnit":"m.s-1","parameterCategory":2,"la1":30.2991,"la2":30.254,"lo1":-89.0895,"lo2":-89.0444,"dy":0.0017,"dx":0.0017,"nx":28,"ny":28,"refTime":"2024-03-17T09:00:00:Z","depth":"4","parameterNumber":3,"parameterNumberName":"V-component_of_CURRENTS"},"data":[0,0,0,0,0,0,0,0,0,0,0,0,0,0,0,0,0,0,0,0,0,0,0,0,0,0,0,0,0,0,0,0,0,0,0,0,0,0,0,0,0,0,0,0,0,0,0,0,0,0,0,0,0,0,0,0,0,0,0.0064,0.0063,0,0.0027,0.0026,0.0026,-0.0002,-0.0002,-0.0002,-0.0003,-0.0056,-0.0057,-0.0058,0,0,0,0,0,0,0,0,0,0,0,0,0,0.0086,0.0086,0.0064,0.0063,0.0063,0.0027,0.0026,0.0026,-0.0002,-0.0002,-0.0002,-0.0003,-0.0056,-0.0057,-0.0059,0,0,0,0,0,0,0,0,0,0,0,0,0,0.0065,0.0086,0.0064,0.0045,0.0043,0.0027,0.0026,0.0026,-0.0002,-0.0002,-0.0002,-0.0003,-0.0055,-0.0057,-0.0059,-0.0065,0,0,-0.0065,-0.0065,0,0,0,0,0,0,0,0,0.0066,0.0064,0.0048,0.0047,0.0044,0.0017,0.0015,-0.0005,-0.0002,0.0014,-0.0003,-0.0003,-0.0032,-0.0036,-0.0043,-0.0067,-0.007,-0.0065,-0.0066,-0.0067,-0.0067,0,0,0,0,0,0,0,0.0068,0.0065,0.0048,0.0048,0.0046,0.0031,0.0028,0.0011,-0.0008,0.0013,0.0011,0.0008,-0.0034,-0.0041,-0.0045,-0.0071,-0.0065,-0.0066,-0.0067,-0.0068,-0.0099,-0.0099,0,0,0,0,0,0,0.0075,0.0067,0.0049,0.0047,0.0056,0.0031,0.0027,0.0026,-0.0007,-0.0012,0.0009,0.0007,-0.0038,-0.0043,-0.0047,-0.0044,-0.0067,-0.0068,-0.0069,-0.01,-0.0099,-0.0099,0,0,0,0,0,0,0.0076,0.0074,0.0051,0.0057,0.0053,0.0031,0.0029,0.0025,0.0018,-0.001,-0.0016,0.0006,-0.0038,-0.0044,-0.0059,-0.0047,-0.0069,-0.0071,-0.01,-0.01,-0.0099,-0.0047,0,0,0,0,0,0,0.0077,0.0075,0.0077,0.0057,0.0053,0.0047,0.003,0.0025,0.0017,0.0014,-0.0015,-0.002,-0.0039,-0.0056,-0.006,-0.005,-0.0072,-0.01,-0.01,-0.0099,-0.0049,-0.0045,-0.0041,0,0,0,0,0,0.0078,0.0085,0.0077,0.0075,0.0056,0.0048,0.0044,0.0027,0.0017,0.0018,-0.0003,-0.0019,-0.0055,-0.0057,-0.0063,-0.0052,-0.0101,-0.01,-0.0099,-0.0051,-0.0045,-0.0041,0,0,0,0,0,0,0.0095,0.0082,0.0073,0.0076,0.0064,0.0043,0.0044,0.003,0.0014,0.0012,-0.0017,-0.0023,-0.0032,-0.0051,-0.0051,-0.006,-0.008,-0.0081,-0.0041,-0.0037,-0.0033,-0.002,-0.0074,0,0,0,0,0,0.01,0.0102,0.0086,0.0088,0.0085,0.0064,0.0058,0.0047,0.0031,0.0023,0.0002,-0.0019,-0.0034,-0.0041,-0.006,-0.0064,-0.0093,-0.0062,-0.0058,-0.0054,-0.0048,-0.0083,-0.0081,-0.0097,-0.0097,-0.0097,0,0,0.0107,0.01,0.0101,0.0091,0.0081,0.0086,0.006,0.0056,0.0061,0.002,0.0018,-0.0008,-0.0033,-0.0038,-0.0043,-0.0051,-0.0066,-0.0053,-0.005,-0.0046,-0.0082,-0.008,-0.0079,-0.0096,-0.0096,-0.0096,0,0,0.0126,0.0116,0.0127,0.0123,0.0113,0.0102,0.0104,0.0085,0.0078,0.007,0.0044,0.0028,0.0001,-0.001,-0.0021,-0.0006,-0.0046,-0.0014,0.002,-0.0014,-0.0013,-0.0012,-0.0053,-0.0056,-0.0009,-0.0009,-0.0009,0,0.0134,0.0145,0.0128,0.0139,0.0141,0.0114,0.0128,0.0119,0.0097,0.0095,0.0076,0.0039,0.0017,0.0015,0.002,0.0005,-0.0027,0.0005,-0.0008,-0.0008,-0.0008,-0.005,-0.0055,-0.0006,-0.0006,-0.0007,-0.0007,0,0.0163,0.0172,0.0179,0.0184,0.0184,0.0191,0.0179,0.0178,0.0161,0.0146,0.0133,0.0097,0.0077,0.0067,0.0048,0.0041,0.0014,-0.0001,-0.0018,-0.0004,-0.0049,-0.0054,-0.0002,-0.0003,-0.0004,-0.0005,0,0,0.0181,0.0197,0.0199,0.0212,0.0209,0.0215,0.0226,0.0227,0.0234,0.0204,0.0206,0.0177,0.0149,0.0135,0.0106,0.0079,0.0047,0.0042,0.0039,0.0005,-0.0038,-0.0047,-0.0055,0.0025,0.0025,0.0025,-0.007,0,0.0208,0.0242,0.024,0.0272,0.0288,0.0276,0.0291,0.0288,0.0271,0.0265,0.0228,0.0214,0.0178,0.0166,0.0135,0.0067,0.0035,0.0073,-0.005,-0.0054,-0.0061,-0.006,0.0023,-0.0075,-0.0076,-0.0077,-0.0078,0,0.0236,0.0256,0.0294,0.0322,0.0328,0.0343,0.036,0.0369,0.0355,0.0341,0.0316,0.0277,0.0239,0.0203,0.0099,0.0121,0.0051,-0.0006,-0.0011,-0.004,-0.0073,-0.0093,-0.0089,-0.0088,-0.0087,-0.0086,-0.0086,0,0.0259,0.0294,0.0326,0.0336,0.0361,0.038,0.0393,0.0392,0.0405,0.0386,0.0381,0.0324,0.029,0.0201,0.0084,0.0088,-0.0043,-0.0054,-0.0129,-0.0132,-0.0118,-0.0118,-0.0125,-0.0125,-0.0125,-0.0125,-0.0124,0,0.0284,0.0312,0.0343,0.0361,0.0406,0.0413,0.0452,0.0454,0.0459,0.0473,0.0421,0.0404,0.0286,0.0197,0.0094,-0.0039,-0.0039,-0.0124,-0.0154,-0.0095,-0.0091,-0.0123,-0.0121,-0.0128,-0.0127,-0.0127,-0.0126,0,0.0297,0.0318,0.036,0.04,0.0418,0.0449,0.0495,0.0519,0.0518,0.0532,0.0528,0.0455,0.0337,0.0208,0.0051,-0.0027,-0.0151,-0.0198,-0.0133,-0.0158,-0.0221,-0.0215,-0.0286,-0.0287,-0.0288,-0.0288,-0.0289,0,0.0306,0.0328,0.0386,0.0417,0.0436,0.0487,0.0522,0.0546,0.0569,0.0559,0.0562,0.0462,0.0397,0.0172,0.0031,-0.0167,-0.0192,-0.0256,-0.0227,-0.0214,-0.0236,-0.0229,-0.0223,-0.029,-0.0291,-0.0291,-0.0291,0,0.0315,0.0336,0.0368,0.0433,0.048,0.0537,0.0587,0.061,0.0633,0.0633,0.0592,0.0482,0.0346,0.0174,0.0015,-0.0125,-0.0211,-0.0265,-0.0264,-0.0237,-0.0221,-0.024,-0.0233,-0.0294,-0.0294,-0.0294,-0.0293,0,0.0317,0.0338,0.0383,0.0442,0.0504,0.0565,0.0597,0.0626,0.0651,0.0644,0.0622,0.0486,0.0407,0.0193,0.0046,-0.0093,-0.0122,-0.0154,-0.0159,-0.0158,-0.009,-0.0048,-0.0094,0,0,0,0,0,0.0315,0.034,0.039,0.0456,0.052,0.0565,0.0628,0.0655,0.0679,0.066,0.0649,0.0526,0.0315,0.0217,0.0077,0.0016,-0.0158,-0.0153,-0.02,-0.0312,-0.0308,-0.0251,0,0,0,0,0,0,0.031,0.0353,0.0382,0.0458,0.0509,0.0585,0.0631,0.0654,0.0646,0.0648,0.0535,0.0493,0.0281,0.0394,0.0074,0.003,-0.0017,-0.0251,-0.0253,-0.0314,-0.031,-0.0307,-0.0248,0,0,0,0,0]}]]